Lid_Strength_Index
11 11 11 11 12 13 15 15 15 16 16 16 15 16 16 17 17 17 18 19 20 19
13 13 13 14 13 14 14 15 15 16 17 18 17 18 18 18 19 19 20 20 20 21
14 14 14 15 17 17 16 17 17 18 18 19 19 18 19 20 20 21 21 21 22 22
15 16 16 17 18 18 19 18 20 20 19 20 19 21 20 21 21 21 22 22 22 23
16 17 18 19 19 19 19 20 20 20 20 20 21 22 22 22 22 22 23 22 23 24
17 18 19 20 20 19 20 20 20 20 21 22 22 22 22 22 23 23 23 23 23 23
17 19 19 19 19 20 20 20 22 22 22 22 23 23 24 24 24 24 24 23 22 21
18 19 19 19 19 20 20 20 20 20 21 22 23 23 25 25 25 25 24 21 20 19
19 19 20 20 20 20 20 20 21 21 21 22 21 20 20 22 23 22 21 21 21 20
20 20 21 20 20 20 21 20 21 21 21 21 20 18 18 19 22 22 22 22 22 21
21 21 21 21 22 22 22 21 21 20 19 19 18 17 18 19 22 23 23 23 23 22
22 22 22 22 22 21 20 20 20 19 19 18 18 17 18 20 22 23 24 23 24 23
21 21 21 21 21 20 20 20 20 20 21 21 19 16 18 20 22 23 23 23 24 21
21 21 21 21 21 21 22 22 22 22 22 22 21 18 16 17 21 22 23 24 24 24